Meteo Giornale » Osservazioni meteo Stati Uniti (USA) » Westfield Barnes

ore: 13:27 - Osservazioni Meteo Westfield Barnes
Lat. 42° 9' N Lon. 72° 42' W Alt. 82 metri s.l.m.

foschia

19 °C

Foschia

Temp. 24 Ore

19 °C

24 °C

Nord

5.5 Km/h

Dew point 19 °C

Umidità 100 %

Visibilità  5 Km

Il sole sorge alle ore 06:16

Il sole tramonta alle ore 19:24

Data e Ora Cielo e Fenomeni T °C DP °C Um. % Pres. hPa Vis. km Vento km/h
Oggi h: 13:27 foschia Foschia 19 19 100 1016 5 N 5.5
Oggi h: 13:13 foschia Foschia 19 19 100 1016 5 N 0
Oggi h: 12:53 coperto_pioggia Pioggia Foschia 19 19 100 1015 2 N 5.5
Oggi h: 12:49 coperto_pioggia Pioggia Foschia 19 19 100 1015 2 S 9.3
Oggi h: 12:45 coperto_pioggia Pioggia Foschia 19 19 100 1015 2 S 9.3
Oggi h: 12:29 nuvoloso_temporali Temporale Foschia 19 19 100 1016 2 N 11.1
Oggi h: 12:22 nuvoloso_temporali Temporale nelle vicinanze Pioggia 19 19 100 1016 2 N 0
Oggi h: 12:13 foschia Foschia 19 19 100 1015 5 N 5.5
Oggi h: 11:53 foschia Foschia 19 19 100 1015 5 E/SE 9.3
Oggi h: 10:53 foschia Foschia 19 19 100 1016 5 SE 9.3
Oggi h: 09:53 coperto Coperto 19 18 93 1016 11 N 5.5
Oggi h: 08:53 coperto_pioggia Pioggia Foschia 19 19 100 1017 3 N 11.1
Oggi h: 08:32 coperto_pioggia Pioggia Foschia 19 18 93 1016 5 N 0
Oggi h: 08:18 coperto_pioggia Pioggia Foschia 19 19 100 1016 2 N/NE 7.4
Oggi h: 07:53 coperto_pioggia Pioggia Foschia 19 18 93 1016 10 N 5.5
Oggi h: 06:53 coperto_pioggia Pioggia Foschia 19 19 100 1016 2 N 5.5
Oggi h: 06:34 coperto_pioggia Pioggia Foschia 19 18 93 1016 2 N 5.5
Oggi h: 05:53 coperto_pioggia Pioggia Foschia 19 19 100 1016 6 N 0
Oggi h: 04:53 coperto_pioggia Pioggia Foschia 19 18 93 1016 5 N 0
Oggi h: 04:45 coperto_pioggia Pioggia Foschia 19 18 93 1016 5 N 0
Oggi h: 04:17 coperto_pioggia Pioggia Foschia 19 18 93 1017 3 N 0
Oggi h: 03:53 coperto Coperto 19 18 93 1017 11 N 0
Oggi h: 03:33 coperto_pioggia Pioggia Foschia 19 18 93 1017 5 N 0
Oggi h: 02:53 coperto Coperto 19 18 93 1017 10 N 0
Oggi h: 02:22 coperto Coperto 19 18 93 1017 10 N 0
Oggi h: 01:53 coperto Coperto 19 18 93 1017 10 S 7.4
Oggi h: 01:37 coperto Coperto 19 18 93 1018 10 S 11.1
Oggi h: 00:53 coperto Coperto 19 18 93 1018 10 S 11.1
Oggi h: 00:39 coperto Coperto 19 18 93 1018 10 S 9.3
Ieri h: 23:53 coperto_pioggia Pioggia 19 17 88 1018 13 N 5.5
Ieri h: 22:53 coperto Coperto 21 17 77 1018 10 S 9.3
Ieri h: 21:53 coperto Coperto 21 17 77 1018 10 S 13
Ieri h: 20:53 coperto Coperto 21 18 82 1018 10 S 7.4
Ieri h: 19:53 coperto Coperto 20 19 93 1018 10 N 0
Ieri h: 18:53 coperto Coperto 23 17 68 1018 10 SO 9.3
Ieri h: 17:53 coperto Coperto 23 18 73 1018 10 N 0
Ieri h: 16:53 coperto Coperto 23 17 68 1018 10 N 5.5
Ieri h: 15:53 molto_nuvoloso Molto Nuvoloso 24 16 60 1018 10 SE 7.4
Ieri h: 14:53 molto_nuvoloso Molto Nuvoloso 24 16 60 1019 10 SE 7.4